Bellingham, Washington, United States (98225)
Lat: 48.76N, Lon: 122.49W
Wx Zone: WAZ503
Local Info
Past Weather Observations for Sunday, December 14, 2014

NOTE: This archive is for the closest National Weather Service station to Bellingham. Information may differ from the station used for current weather conditions.

Click here for Long-term Archive

Time Weather Temperature Dewpoint Humidity Pressure Winds Precip Visibility
23:53
Clear
30°F / -1°C 27°F / -3°C 86% 30.04 in
(1017 mb)
NE 3.5 mph
(NE 6 kph)
- 10SM
22:53
Clear
30°F / -1°C 27°F / -3°C 86% 30.04 in
(1017 mb)
Calm - 10SM
21:53
Clear
30°F / -1°C 27°F / -3°C 86% 30.04 in
(1017 mb)
Calm - 10SM
20:53
Clear
34°F / 1°C 27°F / -3°C 75% 30.04 in
(1017 mb)
S 3.5 mph
(S 6 kph)
- 10SM
19:53
Clear
37°F / 3°C 28°F / -2°C 70% 30.01 in
(1016 mb)
NNE 6.9 mph
(NNE 11 kph)
- 10SM
18:53
Clear
39°F / 4°C 28°F / -2°C 65% 30.04 in
(1017 mb)
N 5.8 mph
(N 9 kph)
- 10SM
17:53
Clear
39°F / 4°C 28°F / -2°C 65% 30.04 in
(1017 mb)
NNE 10.4 mph
(NNE 17 kph)
- 10SM
16:53
Clear
39°F / 4°C 30°F / -1°C 70% 30.06 in
(1018 mb)
N 10.4 mph
(N 17 kph)
- 10SM
15:53
Clear
43°F / 6°C 30°F / -1°C 61% 30.06 in
(1018 mb)
NNE 8.1 mph
(NNE 13 kph)
- 10SM
14:53
Clear
48°F / 9°C 30°F / -1°C 50% 30.09 in
(1019 mb)
N 6.9 mph
(N 11 kph)
- 10SM
13:53
Clear
46°F / 8°C 37°F / 3°C 71% 30.09 in
(1019 mb)
Calm - 10SM
12:53
Partly Cloudy
45°F / 7°C 37°F / 3°C 76% 30.12 in
(1020 mb)
Calm - 10SM
12:21
Partly Cloudy
41°F / 5°C 37°F / 3°C 87% 30.12 in
(1020 mb)
SSE 3.5 mph
(SSE 6 kph)
- 7SM
11:53
Mostly Cloudy
Fog
37°F / 3°C 34°F / 1°C 87% 30.15 in
(1021 mb)
SSE 4.6 mph
(SSE 7 kph)
- 1/2SM
11:25
Partly Cloudy
45°F / 7°C 36°F / 2°C 71% 30.15 in
(1021 mb)
Calm - 10SM
10:53
Clear
45°F / 7°C 34°F / 1°C 66% 30.18 in
(1022 mb)
Calm 0.01 in
(0.25 mm)
10SM
09:53
Clear
36°F / 2°C 34°F / 1°C 93% 30.18 in
(1022 mb)
Calm - 10SM
08:53
Partly Cloudy
32°F / 0°C 30°F / -1°C 93% 30.18 in
(1022 mb)
Calm - 10SM
07:53
Partly Cloudy
30°F / -1°C 28°F / -2°C 93% 30.18 in
(1022 mb)
NE 3.5 mph
(NE 6 kph)
- 10SM
06:53
Partly Cloudy
30°F / -1°C 28°F / -2°C 93% 30.18 in
(1022 mb)
Calm - 10SM
06:44
Partly Cloudy
Fog And Mist
30°F / -1°C 27°F / -3°C 86% 30.18 in
(1022 mb)
Calm - 2SM
06:38
Obscured
Fog And Mist
28°F / -2°C 27°F / -3°C 93% 30.18 in
(1022 mb)
Calm - 1SM
05:53
Obscured
Fog
32°F / 0°C 30°F / -1°C 93% 30.21 in
(1023 mb)
Calm - 1/4SM
05:00
Obscured
Fog
30°F / -1°C 28°F / -2°C 93% 30.21 in
(1023 mb)
Calm - 1/4SM
04:53
Obscured
Fog
30°F / -1°C 30°F / -1°C 100% 30.21 in
(1023 mb)
Calm - 1/2SM
04:48
Obscured
Fog And Mist
32°F / 0°C 30°F / -1°C 93% 30.21 in
(1023 mb)
Calm - 3/4SM
04:44
Overcast
Fog And Mist
32°F / 0°C 30°F / -1°C 93% 30.21 in
(1023 mb)
Calm - 2 1/2SM
04:42
Overcast
Fog And Mist
30°F / -1°C 28°F / -2°C 93% 30.21 in
(1023 mb)
Calm - 4SM
04:26
Mostly Cloudy
Fog And Mist
30°F / -1°C 28°F / -2°C 93% 30.21 in
(1023 mb)
Calm - 2 1/2SM
04:21
Partly Cloudy
Fog And Mist
30°F / -1°C 28°F / -2°C 93% 30.21 in
(1023 mb)
Calm - 6SM
04:05
Clear
Fog And Mist
30°F / -1°C 28°F / -2°C 93% 30.21 in
(1023 mb)
Calm - 6SM
03:53
Clear
Fog And Mist
30°F / -1°C 28°F / -2°C 93% 30.21 in
(1023 mb)
Calm - 2 1/2SM
02:53
Clear
32°F / 0°C 30°F / -1°C 93% 30.21 in
(1023 mb)
Calm - 10SM
02:23
Partly Cloudy
Fog And Mist
32°F / 0°C 30°F / -1°C 93% 30.21 in
(1023 mb)
Calm - 6SM
02:15
Mostly Cloudy
Fog And Mist
30°F / -1°C 28°F / -2°C 93% 30.21 in
(1023 mb)
Calm - 3SM
02:00
Obscured
Fog And Mist
32°F / 0°C 28°F / -2°C 87% 30.21 in
(1023 mb)
Calm - 1SM
01:53
Partly Cloudy
Fog And Mist
32°F / 0°C 30°F / -1°C 93% 30.21 in
(1023 mb)
Calm - 1 3/4SM
01:48
Partly Cloudy
Fog And Mist
32°F / 0°C 30°F / -1°C 93% 30.21 in
(1023 mb)
ENE 3.5 mph
(ENE 6 kph)
- 2SM
00:53
Clear
Fog And Mist
34°F / 1°C 32°F / 0°C 93% 30.21 in
(1023 mb)
Calm - 4SM
Time Weather Temperature Dewpoint Humidity Pressure Winds Precip Visibility


Weather for websites

WeatherForYou.com, LLC is not responsible for any damages or problems caused by this service. Current weather conditions are obtained from the closest station including government and personal stations which may have varying degrees of accuracy. Weather forecasts are derived from the NOAA NDFD. Like all things, this site belongs to Jesus Christ... He just trusts me to maintain it. If you have any questions or comments email webmaster@weatherforyou.com

Copyright © 2014, WeatherForYou.com LLC. All rights reserved.